QBA38E KSYR-CYOW

Flight info

Callsign QBA38E
Flight time 0h 32m
Altitude 17000
Route SYR T391 ART DEANS4
Aircraft B736/M-SDE2E3FGHIRWXY/LB1

Departure

Time 2026-04-29 22:49
Airport Syracuse Hancock International Airport (KSYR)

Arrival

Time 2026-04-29 23:22
Airport Ottawa Macdonald-Cartier International Airport (CYOW)
Time Latitude Longitude Altitude Speed Heading
2026-04-29 22:05 43.11338 -76.10897 415 ft 0 kts 230°
2026-04-29 22:35 43.11339 -76.10894 423 ft 3 kts 230°
2026-04-29 22:36 43.11358 -76.10874 416 ft 4 kts 192°
2026-04-29 22:36 43.11383 -76.10875 417 ft 4 kts 150°
2026-04-29 22:36 43.11399 -76.10897 418 ft 3 kts 94°
2026-04-29 22:36 43.11399 -76.10902 418 ft 1 kts 88°
2026-04-29 22:42 43.11399 -76.10893 423 ft 3 kts 88°
2026-04-29 22:42 43.11396 -76.10868 418 ft 3 kts 110°
2026-04-29 22:42 43.11372 -76.10842 419 ft 7 kts 160°
2026-04-29 22:43 43.11315 -76.10834 415 ft 9 kts 177°
2026-04-29 22:43 43.11256 -76.10830 420 ft 8 kts 177°
2026-04-29 22:43 43.11187 -76.10826 419 ft 13 kts 177°
2026-04-29 22:43 43.11088 -76.10820 418 ft 14 kts 177°
2026-04-29 22:44 43.11007 -76.10854 420 ft 13 kts 244°
2026-04-29 22:44 43.10998 -76.10973 424 ft 13 kts 267°
2026-04-29 22:44 43.10994 -76.11091 424 ft 12 kts 268°
2026-04-29 22:44 43.10990 -76.11206 424 ft 12 kts 267°
2026-04-29 22:45 43.10986 -76.11342 419 ft 17 kts 267°
2026-04-29 22:45 43.10980 -76.11517 420 ft 20 kts 267°
2026-04-29 22:45 43.10975 -76.11701 423 ft 19 kts 268°
2026-04-29 22:45 43.10969 -76.11879 423 ft 18 kts 268°
2026-04-29 22:46 43.10963 -76.12051 423 ft 18 kts 267°
2026-04-29 22:46 43.10957 -76.12216 414 ft 17 kts 267°
2026-04-29 22:46 43.10952 -76.12376 423 ft 16 kts 268°
2026-04-29 22:46 43.10947 -76.12527 421 ft 14 kts 268°
2026-04-29 22:47 43.10927 -76.12623 418 ft 1 kts 216°
2026-04-29 22:47 43.10927 -76.12624 419 ft 0 kts 214°
2026-04-29 22:48 43.10911 -76.12632 420 ft 5 kts 193°
2026-04-29 22:48 43.10865 -76.12613 422 ft 9 kts 152°
2026-04-29 22:48 43.10825 -76.12530 424 ft 14 kts 88°
2026-04-29 22:49 43.10837 -76.12140 421 ft 78 kts 87°
2026-04-29 22:49 43.10871 -76.11092 426 ft 140 kts 88°
2026-04-29 22:49 43.10914 -76.09648 869 ft 157 kts 87°
2026-04-29 22:49 43.10956 -76.08115 1544 ft 168 kts 93°
2026-04-29 22:50 43.10923 -76.06414 2042 ft 190 kts 100°
2026-04-29 22:50 43.10806 -76.04592 2774 ft 194 kts 104°
2026-04-29 22:50 43.10627 -76.02738 3469 ft 198 kts 107°
2026-04-29 22:50 43.10438 -76.00840 3875 ft 206 kts 100°
2026-04-29 22:51 43.10867 -75.98847 4065 ft 242 kts 59°
2026-04-29 22:51 43.12232 -75.97260 4289 ft 278 kts 27°
2026-04-29 22:51 43.16238 -75.96580 5640 ft 296 kts 353°
2026-04-29 22:52 43.18294 -75.96877 6519 ft 300 kts 351°
2026-04-29 22:52 43.20379 -75.97222 7371 ft 304 kts 351°
2026-04-29 22:52 43.22492 -75.97560 8291 ft 308 kts 351°
2026-04-29 22:52 43.24639 -75.97881 9220 ft 313 kts 352°
2026-04-29 22:53 43.26819 -75.98186 10169 ft 317 kts 353°
2026-04-29 22:53 43.29074 -75.98486 10689 ft 338 kts 353°
2026-04-29 22:53 43.31512 -75.98801 10946 ft 364 kts 353°
2026-04-29 22:53 43.34070 -75.99119 11624 ft 374 kts 353°
2026-04-29 22:54 43.36673 -75.99436 12535 ft 377 kts 353°
2026-04-29 22:54 43.39296 -75.99751 13538 ft 379 kts 353°
2026-04-29 22:54 43.41933 -76.00066 14410 ft 382 kts 353°
2026-04-29 22:54 43.44589 -76.00384 15323 ft 383 kts 353°
2026-04-29 22:55 43.47251 -76.00703 16243 ft 385 kts 353°
2026-04-29 22:55 43.49932 -76.01024 16768 ft 387 kts 352°
2026-04-29 22:55 43.52620 -76.01347 16988 ft 391 kts 352°
2026-04-29 22:55 43.55371 -76.01680 16982 ft 400 kts 352°
2026-04-29 22:56 43.58157 -76.02015 16999 ft 402 kts 352°
2026-04-29 22:56 43.60934 -76.02349 16992 ft 401 kts 352°
2026-04-29 22:56 43.63714 -76.02683 16987 ft 400 kts 352°
2026-04-29 22:56 43.66488 -76.03016 16996 ft 400 kts 352°
2026-04-29 22:57 43.69261 -76.03351 16993 ft 400 kts 352°
2026-04-29 22:57 43.72030 -76.03686 16996 ft 400 kts 352°
2026-04-29 22:57 43.74765 -76.04017 16999 ft 400 kts 352°
2026-04-29 22:57 43.77570 -76.04357 16995 ft 401 kts 352°
2026-04-29 22:58 43.80354 -76.04695 17009 ft 402 kts 352°
2026-04-29 22:58 43.83137 -76.05033 17017 ft 402 kts 352°
2026-04-29 22:58 43.85928 -76.05371 17020 ft 402 kts 352°
2026-04-29 22:58 43.88719 -76.05711 17024 ft 403 kts 352°
2026-04-29 22:59 43.91475 -76.06046 17018 ft 403 kts 352°
2026-04-29 22:59 43.94275 -76.06289 17004 ft 405 kts 359°
2026-04-29 22:59 43.97034 -76.05457 17028 ft 410 kts 20°
2026-04-29 22:59 43.99637 -76.03817 17028 ft 411 kts 24°
2026-04-29 23:00 44.02216 -76.02090 17015 ft 411 kts 24°
2026-04-29 23:00 44.04791 -76.00351 17008 ft 411 kts 24°
2026-04-29 23:00 44.07372 -75.98619 17017 ft 411 kts 24°
2026-04-29 23:00 44.09953 -75.96905 17013 ft 411 kts 24°
2026-04-29 23:01 44.12541 -75.95199 17006 ft 411 kts 24°
2026-04-29 23:01 44.15129 -75.93501 16981 ft 412 kts 24°
2026-04-29 23:01 44.17726 -75.91799 16987 ft 413 kts 24°
2026-04-29 23:01 44.20328 -75.90093 16990 ft 413 kts 24°
2026-04-29 23:02 44.22934 -75.88383 16997 ft 414 kts 24°
2026-04-29 23:02 44.25549 -75.86665 17002 ft 414 kts 24°
2026-04-29 23:02 44.28159 -75.84948 16980 ft 414 kts 24°
2026-04-29 23:02 44.30691 -75.83280 16984 ft 402 kts 24°
2026-04-29 23:03 44.33205 -75.81623 16981 ft 396 kts 24°
2026-04-29 23:03 44.35691 -75.79982 16974 ft 383 kts 24°
2026-04-29 23:03 44.38026 -75.78433 16979 ft 370 kts 24°
2026-04-29 23:03 44.40328 -75.76901 16978 ft 354 kts 24°
2026-04-29 23:04 44.42477 -75.75468 16976 ft 340 kts 24°
2026-04-29 23:04 44.44574 -75.74068 16977 ft 327 kts 24°
2026-04-29 23:04 44.46582 -75.72728 16980 ft 314 kts 24°
2026-04-29 23:04 44.48515 -75.71437 16976 ft 302 kts 24°
2026-04-29 23:05 44.50434 -75.70369 16792 ft 293 kts 14°
2026-04-29 23:05 44.52375 -75.69605 16464 ft 288 kts 12°
2026-04-29 23:05 44.54323 -75.68922 16009 ft 290 kts 11°
2026-04-29 23:05 44.56327 -75.68234 15145 ft 307 kts 12°
2026-04-29 23:06 44.58466 -75.67494 14251 ft 324 kts 13°
2026-04-29 23:06 44.60667 -75.66720 13641 ft 327 kts 14°
2026-04-29 23:06 44.62870 -75.65934 13105 ft 325 kts 14°
2026-04-29 23:06 44.65043 -75.65151 12637 ft 320 kts 14°
2026-04-29 23:07 44.67185 -75.64374 12167 ft 316 kts 14°
2026-04-29 23:07 44.69306 -75.63603 11723 ft 312 kts 14°
2026-04-29 23:07 44.71395 -75.62841 11418 ft 310 kts 14°
2026-04-29 23:07 44.73473 -75.62083 11167 ft 305 kts 14°
2026-04-29 23:08 44.75500 -75.61342 10912 ft 297 kts 14°
2026-04-29 23:08 44.77473 -75.60620 10669 ft 288 kts 14°
2026-04-29 23:08 44.79363 -75.59928 10449 ft 283 kts 15°
2026-04-29 23:08 44.81282 -75.59224 10227 ft 280 kts 15°
2026-04-29 23:09 44.83137 -75.58544 9999 ft 278 kts 15°
2026-04-29 23:09 44.85002 -75.57859 9790 ft 276 kts 15°
2026-04-29 23:09 44.86858 -75.57177 9550 ft 275 kts 15°
2026-04-29 23:09 44.88699 -75.56500 9318 ft 273 kts 15°
2026-04-29 23:10 44.90533 -75.55825 9093 ft 271 kts 15°
2026-04-29 23:10 44.92351 -75.55156 8870 ft 270 kts 15°
2026-04-29 23:10 44.94164 -75.54488 8647 ft 268 kts 15°
2026-04-29 23:10 44.95965 -75.53824 8436 ft 267 kts 15°
2026-04-29 23:11 44.97762 -75.53161 8223 ft 267 kts 15°
2026-04-29 23:11 44.99561 -75.52497 8018 ft 267 kts 15°
2026-04-29 23:11 45.01363 -75.51832 7803 ft 267 kts 15°
2026-04-29 23:11 45.03161 -75.51167 7587 ft 267 kts 15°
2026-04-29 23:12 45.04963 -75.50501 7377 ft 267 kts 15°
2026-04-29 23:12 45.06764 -75.49835 7156 ft 267 kts 15°
2026-04-29 23:12 45.08562 -75.49169 6941 ft 267 kts 15°
2026-04-29 23:12 45.10356 -75.48504 6723 ft 266 kts 15°
2026-04-29 23:13 45.12117 -75.47851 6511 ft 264 kts 15°
2026-04-29 23:13 45.13878 -75.47198 6291 ft 260 kts 15°
2026-04-29 23:13 45.15617 -75.46552 6062 ft 256 kts 15°
2026-04-29 23:13 45.17328 -75.45917 5850 ft 252 kts 15°
2026-04-29 23:14 45.19011 -75.45291 5645 ft 248 kts 15°
2026-04-29 23:14 45.20672 -75.44673 5446 ft 244 kts 15°
2026-04-29 23:14 45.22303 -75.44066 5253 ft 241 kts 16°
2026-04-29 23:14 45.23914 -75.43466 5058 ft 237 kts 16°
2026-04-29 23:15 45.25494 -75.42877 4888 ft 231 kts 15°
2026-04-29 23:15 45.27017 -75.42310 4704 ft 221 kts 16°
2026-04-29 23:15 45.28498 -75.41757 4514 ft 219 kts 16°
2026-04-29 23:15 45.29958 -75.41213 4321 ft 212 kts 16°
2026-04-29 23:16 45.31353 -75.40693 4139 ft 202 kts 16°
2026-04-29 23:16 45.32678 -75.40198 3973 ft 193 kts 16°
2026-04-29 23:16 45.34007 -75.40135 3799 ft 196 kts 339°
2026-04-29 23:16 45.35137 -75.41132 3711 ft 187 kts 328°
2026-04-29 23:17 45.36208 -75.42113 3559 ft 180 kts 329°
2026-04-29 23:17 45.37255 -75.43056 3423 ft 177 kts 329°
2026-04-29 23:17 45.38284 -75.43982 3281 ft 178 kts 329°
2026-04-29 23:17 45.39325 -75.44926 3137 ft 177 kts 328°
2026-04-29 23:18 45.40053 -75.46306 3008 ft 181 kts 282°
2026-04-29 23:18 45.39799 -75.48039 3018 ft 186 kts 242°
2026-04-29 23:18 45.39145 -75.49672 2787 ft 191 kts 240°
2026-04-29 23:18 45.38473 -75.51236 2536 ft 178 kts 239°
2026-04-29 23:19 45.37851 -75.52633 2345 ft 157 kts 239°
2026-04-29 23:19 45.37293 -75.53877 2111 ft 142 kts 240°
2026-04-29 23:19 45.36771 -75.55038 1954 ft 139 kts 240°
2026-04-29 23:19 45.36248 -75.56199 1758 ft 139 kts 240°
2026-04-29 23:20 45.35726 -75.57359 1577 ft 139 kts 240°
2026-04-29 23:20 45.35208 -75.58511 1406 ft 138 kts 240°
2026-04-29 23:20 45.34694 -75.59658 1200 ft 137 kts 239°
2026-04-29 23:20 45.34186 -75.60788 1027 ft 135 kts 239°
2026-04-29 23:21 45.33677 -75.61913 845 ft 136 kts 238°
2026-04-29 23:21 45.33167 -75.63046 672 ft 136 kts 239°
2026-04-29 23:21 45.32827 -75.63801 561 ft 137 kts 238°
2026-04-29 23:21 45.32320 -75.64918 386 ft 131 kts 240°
2026-04-29 23:22 45.31804 -75.66081 371 ft 70 kts 237°
2026-04-29 23:22 45.31582 -75.66569 370 ft 44 kts 237°
2026-04-29 23:22 45.31437 -75.66897 372 ft 36 kts 238°
2026-04-29 23:22 45.31364 -75.67105 376 ft 17 kts 285°
2026-04-29 23:23 45.31430 -75.67133 376 ft 16 kts 13°
2026-04-29 23:23 45.31518 -75.67106 376 ft 10 kts 12°
2026-04-29 23:23 45.31582 -75.67064 374 ft 10 kts 44°
2026-04-29 23:23 45.31622 -75.66984 373 ft 10 kts 57°
2026-04-29 23:24 45.31658 -75.66904 373 ft 10 kts 57°
2026-04-29 23:24 45.31694 -75.66825 373 ft 9 kts 57°
2026-04-29 23:24 45.31729 -75.66749 373 ft 9 kts 57°
2026-04-29 23:24 45.31762 -75.66674 374 ft 9 kts 57°
2026-04-29 23:25 45.31795 -75.66603 376 ft 9 kts 55°
2026-04-29 23:25 45.31850 -75.66591 375 ft 11 kts 323°
2026-04-29 23:25 45.31896 -75.66673 375 ft 11 kts 306°
2026-04-29 23:25 45.31955 -75.66744 375 ft 12 kts 340°
2026-04-29 23:26 45.32031 -75.66780 375 ft 11 kts 334°
2026-04-29 23:26 45.32083 -75.66862 375 ft 11 kts 306°
2026-04-29 23:26 45.32129 -75.66949 375 ft 11 kts 307°
2026-04-29 23:26 45.32185 -75.67058 375 ft 15 kts 305°
2026-04-29 23:27 45.32230 -75.67147 375 ft 10 kts 309°
2026-04-29 23:27 45.32277 -75.67151 375 ft 5 kts 65°
2026-04-29 23:27 45.32283 -75.67108 375 ft 4 kts 77°
2026-04-29 23:27 45.32289 -75.67072 375 ft 3 kts 77°
2026-04-29 23:28 45.32291 -75.67064 375 ft 0 kts 77°